Wetbulb
68.85 70.56 73.70 73.26 72.82 73.15 73.08 72.66 72.93 74.22 74.31 74.11 73.76 73.57 73.35 73.00 72.68 72.75 72.42 72.21 72.47 71.55 71.36 72.16 72.82 72.39 71.71 71.12 71.08 71.73 71.66 71.91 72.12 72.56 72.85 72.71 72.80 72.53 72.39 72.63 72.70 71.97 73.19
69.72 70.41 73.33 72.99 72.46 72.58 72.88 72.73 73.62 73.55 73.29 73.34 73.55 73.32 73.22 73.04 72.81 72.19 71.65 71.43 71.54 70.94 70.53 70.71 71.84 72.32 71.69 70.47 69.96 70.18 70.97 70.93 71.05 71.53 71.52 71.31 71.35 72.21 72.16 72.87 72.34 71.66 72.58
69.86 70.32 70.55 72.94 72.93 72.59 72.24 72.49 73.17 73.30 73.36 73.16 73.06 72.65 72.08 71.85 71.68 71.41 71.18 71.26 71.41 70.97 70.23 69.81 69.65 70.78 70.49 69.99 69.85 69.52 69.07 69.55 69.66 70.27 70.62 69.00 69.89 72.26 72.66 72.94 72.69 72.41 72.14
69.63 69.64 70.08 72.69 72.43 72.15 71.93 72.21 72.15 72.36 72.31 72.52 72.42 71.92 71.68 71.69 71.70 71.34 71.22 71.62 71.06 70.64 70.50 70.30 69.66 69.19 69.51 69.56 69.47 69.55 69.19 68.34 68.54 68.65 67.21 69.25 69.20 71.82 72.09 71.79 71.74 71.39 71.41
68.69 69.02 70.09 71.70 71.68 71.66 71.72 71.60 71.68 71.12 71.33 71.47 71.57 71.89 71.95 71.66 71.68 71.96 71.66 71.46 71.93 71.23 70.36 70.20 69.96 69.40 68.85 69.25 69.47 69.25 68.72 68.39 68.53 67.48 67.33 68.47 68.30 71.28 71.68 71.39 70.93 70.73 71.18
67.40 67.79 70.11 71.59 71.52 71.63 71.87 71.62 71.68 71.40 71.40 71.49 71.87 71.89 71.57 70.94 70.81 70.93 71.22 71.30 71.37 71.35 70.66 70.18 70.06 69.74 69.83 69.45 68.97 68.59 67.93 68.10 67.65 63.87 67.07 69.24 69.40 71.22 71.89 70.63 71.46 70.76 70.75
59.91 63.17 66.65 71.10 70.80 70.72 71.08 71.38 71.42 71.28 71.24 71.36 71.35 71.22 70.96 70.66 70.42 70.39 71.20 70.88 70.77 70.40 70.17 70.20 70.19 69.87 69.61 69.82 68.76 68.43 68.08 67.20 65.24 63.40 66.30 67.61 68.37 70.88 70.84 70.71 70.61 70.87 71.29
56.62 57.55 58.35 62.40 68.76 70.03 69.36 69.36 70.03 70.44 70.89 70.92 70.82 70.77 70.74 70.54 70.20 69.93 70.58 70.69 70.06 69.88 70.00 69.98 69.69 69.74 69.69 69.83 69.69 69.78 68.50 66.28 64.80 63.64 63.37 65.57 68.62 70.12 70.98 70.98 71.09 71.56 71.41
54.83 54.68 55.27 56.48 59.40 63.29 66.83 66.57 67.71 67.70 68.23 68.94 69.16 69.37 69.44 69.48 70.01 69.78 70.42 70.49 69.77 69.73 70.21 70.30 70.00 69.80 69.05 69.54 70.49 70.03 67.85 66.13 63.48 63.43 65.25 65.23 66.83 66.20 69.77 70.84 70.87 70.73 71.04
52.73 52.40 52.73 53.65 55.21 56.28 58.18 64.33 65.11 65.93 65.56 66.28 66.94 66.57 66.04 67.20 68.27 69.47 68.90 69.39 70.31 70.39 70.31 70.23 70.38 70.30 70.03 69.27 69.77 69.37 67.45 65.84 62.93 64.16 65.87 66.51 68.73 66.05 69.44 70.39 70.21 70.78 71.03
50.80 50.53 50.88 51.63 53.65 55.24 58.19 60.36 61.86 64.47 63.27 63.39 63.04 63.85 62.55 59.47 64.22 66.91 66.93 67.59 68.60 69.18 69.87 70.01 69.99 69.83 69.01 68.40 68.23 68.40 66.66 63.95 62.93 62.76 64.44 68.86 69.98 70.10 70.21 70.67 71.45 70.80 70.85
46.34 47.68 48.59 49.50 51.25 53.45 57.51 58.49 58.31 59.33 58.83 58.61 58.10 57.69 57.50 56.68 57.83 60.44 60.34 65.75 67.14 67.99 68.45 69.57 69.84 69.03 67.76 66.41 65.89 66.85 64.66 63.28 62.84 60.88 66.04 68.90 69.65 69.59 70.03 70.57 72.04 71.62 71.25
45.12 45.46 46.40 47.31 49.58 50.95 55.09 56.61 58.75 58.75 57.60 57.61 57.82 57.63 57.67 57.93 57.26 57.47 58.78 62.27 63.57 63.25 65.46 67.09 66.94 66.54 65.17 65.77 65.59 64.28 63.12 60.85 58.67 59.22 65.91 68.04 69.26 69.42 69.56 69.68 71.45 71.95 71.25
42.43 42.91 43.73 44.38 46.51 48.95 52.72 54.18 55.21 57.41 58.15 58.03 57.82 58.82 57.79 57.46 56.88 57.00 57.39 58.34 59.95 60.80 60.21 63.91 64.81 65.27 65.78 66.16 65.76 65.49 66.14 60.45 58.80 58.16 62.24 66.08 68.40 69.12 69.78 69.99 70.21 70.28 70.05
40.11 40.91 41.50 42.14 43.43 46.19 49.06 52.60 53.81 54.07 53.85 54.60 56.88 57.01 57.63 58.05 57.79 58.09 57.40 57.30 57.79 59.04 59.77 60.67 62.10 63.71 64.17 64.70 65.63 65.63 65.31 65.84 60.51 58.79 59.94 64.00 66.09 68.15 69.24 69.52 69.57 69.30 67.70
39.02 39.21 40.47 40.77 41.77 43.41 44.66 49.00 52.20 52.49 53.99 54.23 54.09 53.45 53.71 53.83 53.89 56.39 57.72 56.95 56.73 57.49 58.67 59.28 61.16 62.41 62.82 63.99 64.16 64.48 64.94 65.11 66.10 62.87 61.06 62.02 64.61 66.27 68.04 69.29 69.80 69.88 69.09
37.77 38.58 38.74 39.67 40.44 40.63 41.38 43.10 43.84 48.60 48.70 50.23 50.04 50.42 48.96 50.97 51.80 53.25 55.64 57.06 56.94 57.47 57.25 57.79 58.93 62.06 61.27 62.65 62.50 64.03 64.66 64.25 65.17 65.07 64.85 62.49 63.15 63.72 66.13 68.37 69.32 69.65 70.04
36.66 36.82 38.12 38.87 38.04 38.98 39.44 40.55 41.54 42.49 42.69 46.67 45.26 45.89 46.81 46.38 46.60 48.42 52.30 54.06 55.03 56.93 57.05 56.28 56.24 57.81 59.76 59.72 60.79 60.99 61.83 63.64 63.27 64.08 64.88 64.81 63.62 63.48 63.81 66.24 68.41 69.58 69.45
35.42 35.83 35.77 36.61 36.30 36.75 37.71 38.89 39.21 39.92 41.27 41.15 41.78 41.84 43.20 43.51 43.98 44.35 47.27 50.33 52.38 54.20 55.15 56.16 56.15 55.97 55.39 56.07 58.92 60.32 60.93 61.05 61.58 62.99 62.41 64.02 64.33 63.88 63.59 63.80 64.66 65.96 67.59
34.09 34.32 34.69 35.62 35.47 35.58 35.95 36.42 36.91 37.15 38.65 39.28 39.11 39.48 41.13 41.13 41.38 42.13 43.40 43.40 47.24 50.79 52.31 53.28 53.38 54.95 55.85 55.62 57.48 56.89 56.80 59.14 60.30 60.36 60.85 63.06 63.45 64.42 63.75 63.32 63.36 63.09 64.14
33.30 33.19 33.60 33.70 34.08 34.06 33.15 32.96 33.49 33.09 35.71 37.07 38.60 39.00 39.54 39.38 39.98 39.58 41.20 41.27 42.56 43.44 46.88 51.10 53.34 52.78 53.66 55.47 54.68 54.18 55.02 56.26 56.41 56.83 58.61 59.12 61.07 63.96 63.80 63.88 62.63 62.57 62.67
32.15 32.29 32.87 33.11 33.28 33.51 32.98 33.26 33.68 33.63 34.95 35.97 37.05 37.49 38.78 38.32 38.84 39.20 39.53 39.48 40.19 40.98 42.22 45.27 49.14 50.68 53.32 54.85 53.07 52.69 49.47 50.71 53.48 55.86 56.29 58.26 59.80 61.14 63.07 64.02 63.43 62.99 63.38
30.27 30.67 32.26 32.40 32.61 32.60 32.70 33.12 33.00 33.16 33.26 32.92 32.76 33.79 35.65 36.47 37.53 38.07 38.65 38.48 38.59 39.89 39.71 41.08 43.23 46.63 48.97 51.31 53.25 53.51 49.22 47.11 50.42 52.56 53.75 55.28 56.15 57.37 59.30 63.10 63.71 64.43 64.30
30.09 31.12 31.85 32.33 32.18 32.73 32.11 30.97 29.66 29.18 28.63 30.79 31.55 32.74 33.39 34.65 35.16 36.86 37.27 37.44 37.54 38.21 37.82 39.50 41.84 40.97 44.35 46.16 49.98 53.91 53.21 53.02 49.23 47.86 52.04 54.36 55.63 55.91 57.08 58.25 62.35 63.71 64.34
30.89 29.78 30.34 31.13 31.30 31.37 31.17 30.20 28.88 28.43 29.68 30.61 31.11 31.03 31.58 33.08 34.31 34.65 34.95 34.77 35.65 36.48 36.66 36.63 37.48 39.30 41.97 42.41 45.90 47.56 50.63 52.18 52.55 50.87 48.96 49.82 52.01 55.69 56.32 56.25 56.56 58.40 60.89
29.76 29.41 29.48 30.10 30.10 30.27 30.23 30.02 28.90 27.88 28.04 28.26 28.69 28.95 30.26 31.53 32.63 33.29 34.07 33.31 33.38 33.93 34.55 35.41 35.58 36.24 37.47 39.41 41.39 43.58 46.25 48.30 48.91 50.32 50.15 50.49 50.38 52.13 54.16 56.58 56.48 56.85 57.74
MSLP
1016.48 1016.77 1017.04 1017.25 1017.47 1017.48 1017.39 1017.40 1017.32 1017.30 1017.42 1017.46 1017.43 1017.59 1017.72 1017.77 1017.83 1017.86 1017.86 1017.85 1017.91 1017.91 1017.90 1017.88 1017.90 1017.86 1017.92 1017.91 1018.03 1017.95 1017.84 1017.86 1017.89 1017.88 1018.05 1018.06 1018.05 1018.03 1018.04 1018.12 1018.04 1018.08 1018.18
1016.51 1017.02 1017.26 1017.58 1017.73 1017.80 1017.82 1017.79 1017.70 1017.69 1017.86 1017.81 1017.80 1017.95 1018.02 1018.06 1018.15 1018.22 1018.17 1018.19 1018.12 1018.21 1018.19 1018.19 1018.21 1018.26 1018.30 1018.33 1018.34 1018.39 1018.28 1018.23 1018.23 1018.22 1018.29 1018.39 1018.41 1018.38 1018.19 1018.26 1018.21 1018.43 1018.48
1016.74 1017.26 1017.62 1017.87 1017.93 1018.07 1018.19 1018.13 1018.07 1018.07 1018.14 1018.21 1018.15 1018.20 1018.25 1018.29 1018.32 1018.40 1018.40 1018.42 1018.40 1018.43 1018.47 1018.47 1018.53 1018.60 1018.64 1018.71 1018.72 1018.75 1018.72 1018.56 1018.46 1018.41 1018.48 1018.61 1018.66 1018.63 1018.59 1018.66 1018.72 1018.79 1018.88
1017.31 1017.82 1018.03 1018.13 1018.22 1018.28 1018.34 1018.34 1018.40 1018.38 1018.44 1018.42 1018.46 1018.48 1018.46 1018.48 1018.46 1018.48 1018.56 1018.53 1018.64 1018.71 1018.78 1018.83 1018.84 1018.85 1018.95 1018.98 1019.03 1018.96 1018.95 1018.90 1018.65 1018.52 1018.70 1018.56 1018.51 1018.88 1018.86 1019.00 1019.10 1019.14 1019.22
1017.90 1018.28 1018.60 1018.68 1018.71 1018.66 1018.65 1018.72 1018.72 1018.73 1018.79 1018.77 1018.84 1018.82 1018.76 1018.78 1018.73 1018.69 1018.79 1018.80 1018.84 1018.91 1018.99 1019.10 1019.13 1019.12 1019.11 1019.18 1019.28 1019.33 1019.21 1019.12 1018.97 1018.73 1018.59 1018.53 1018.79 1018.91 1019.11 1019.29 1019.41 1019.46 1019.51
1018.53 1018.81 1019.03 1019.14 1019.15 1019.11 1019.03 1019.00 1018.99 1018.94 1018.97 1018.91 1018.89 1018.87 1018.90 1018.91 1018.90 1018.96 1019.01 1019.04 1019.08 1019.10 1019.14 1019.17 1019.22 1019.33 1019.32 1019.33 1019.41 1019.48 1019.48 1019.33 1019.17 1018.97 1018.60 1018.74 1018.83 1019.00 1019.20 1019.40 1019.59 1019.76 1019.73
1019.45 1019.38 1019.43 1019.47 1019.47 1019.46 1019.44 1019.40 1019.36 1019.36 1019.30 1019.28 1019.25 1019.19 1019.19 1019.09 1019.01 1018.95 1019.02 1019.09 1019.26 1019.27 1019.29 1019.35 1019.34 1019.38 1019.43 1019.42 1019.47 1019.57 1019.63 1019.52 1019.35 1019.21 1018.91 1019.24 1019.26 1019.11 1019.22 1019.50 1019.68 1019.77 1019.87
1020.54 1020.54 1020.39 1020.22 1020.02 1019.88 1019.83 1019.83 1019.79 1019.70 1019.62 1019.54 1019.47 1019.43 1019.37 1019.26 1019.16 1019.11 1019.11 1019.10 1019.10 1019.19 1019.33 1019.43 1019.45 1019.47 1019.45 1019.44 1019.45 1019.54 1019.62 1019.60 1019.40 1019.45 1019.09 1019.37 1019.41 1019.37 1019.33 1019.57 1019.76 1019.73 1019.92
1022.01 1022.03 1021.83 1021.41 1020.88 1020.57 1020.30 1020.04 1020.00 1019.95 1019.91 1019.85 1019.77 1019.65 1019.48 1019.30 1019.17 1019.10 1019.16 1019.16 1019.16 1019.16 1019.19 1019.28 1019.36 1019.46 1019.49 1019.48 1019.47 1019.56 1019.63 1019.56 1019.55 1019.41 1018.95 1019.40 1019.46 1019.60 1019.63 1019.77 1019.92 1019.89 1019.99
1023.10 1023.08 1022.95 1022.62 1022.13 1021.53 1020.73 1020.26 1020.21 1020.09 1019.89 1019.84 1019.72 1019.55 1019.36 1019.28 1019.17 1019.05 1019.00 1019.10 1019.21 1019.23 1019.19 1019.09 1019.13 1019.22 1019.34 1019.46 1019.48 1019.54 1019.63 1019.59 1019.33 1019.17 1018.96 1019.35 1019.48 1019.60 1019.68 1019.84 1019.97 1019.97 1020.04
1023.84 1023.74 1023.61 1023.28 1022.74 1022.14 1021.15 1020.75 1020.36 1020.06 1019.83 1019.78 1019.71 1019.55 1019.34 1019.24 1019.10 1019.10 1019.26 1019.24 1019.20 1019.17 1019.09 1019.04 1019.00 1019.00 1019.10 1019.17 1019.26 1019.36 1019.49 1019.55 1019.25 1018.96 1018.78 1018.94 1019.20 1019.43 1019.51 1019.72 1019.81 1019.98 1020.07
1024.96 1024.76 1024.53 1024.08 1023.45 1022.83 1022.00 1021.46 1020.81 1020.30 1020.17 1020.00 1019.92 1019.74 1019.56 1019.29 1019.16 1019.03 1019.02 1019.03 1018.97 1019.01 1018.96 1018.84 1018.82 1018.93 1019.00 1018.99 1018.98 1019.21 1019.37 1019.24 1019.04 1018.85 1018.77 1018.85 1018.99 1019.17 1019.37 1019.54 1019.61 1019.78 1019.98
1026.12 1025.75 1025.36 1024.91 1024.31 1023.70 1022.98 1022.50 1021.68 1021.18 1020.92 1020.71 1020.43 1020.31 1020.12 1019.81 1019.47 1019.26 1019.16 1019.13 1019.07 1018.80 1018.87 1018.72 1018.74 1018.83 1018.83 1018.77 1018.75 1018.99 1018.94 1018.86 1018.84 1018.61 1018.70 1018.81 1018.92 1019.01 1019.11 1019.13 1019.20 1019.58 1019.73
1026.75 1026.57 1026.22 1025.75 1025.08 1024.45 1023.92 1023.49 1023.17 1022.54 1022.11 1021.47 1021.16 1021.05 1020.92 1020.59 1020.19 1019.88 1019.52 1019.28 1019.06 1018.86 1018.77 1018.52 1018.57 1018.56 1018.58 1018.52 1018.58 1018.71 1018.58 1018.42 1018.35 1018.53 1018.86 1018.75 1018.80 1018.85 1019.08 1019.21 1019.22 1019.41 1019.56
1027.54 1027.39 1027.00 1026.56 1025.93 1025.30 1024.56 1024.01 1023.81 1023.67 1023.52 1023.17 1022.55 1022.27 1022.02 1021.54 1021.10 1020.54 1020.13 1019.74 1019.43 1019.20 1018.97 1018.84 1018.59 1018.43 1018.41 1018.39 1018.34 1018.30 1018.35 1018.34 1018.22 1018.17 1018.55 1018.67 1018.77 1018.80 1018.93 1019.06 1019.18 1019.33 1019.49
1028.29 1028.03 1027.58 1027.12 1026.68 1026.02 1025.46 1024.85 1024.45 1024.20 1023.78 1023.47 1023.34 1023.25 1022.97 1022.75 1022.37 1021.80 1020.94 1020.38 1019.89 1019.52 1019.34 1019.20 1018.91 1018.64 1018.73 1018.34 1018.34 1018.24 1018.08 1018.02 1018.03 1018.10 1018.02 1018.13 1018.38 1018.53 1018.73 1018.76 1018.89 1019.00 1019.28
1028.80 1028.72 1028.19 1027.81 1027.50 1026.94 1026.48 1026.00 1025.56 1025.11 1024.70 1024.42 1024.43 1024.28 1024.04 1023.61 1023.24 1022.66 1022.00 1021.11 1020.55 1020.01 1019.66 1019.44 1019.23 1018.84 1018.90 1018.75 1018.72 1018.34 1018.26 1018.02 1017.74 1017.59 1017.64 1017.86 1017.81 1018.10 1018.34 1018.41 1018.52 1018.73 1018.80
1029.20 1029.11 1028.97 1028.68 1028.38 1027.86 1027.41 1026.97 1026.41 1026.01 1025.73 1025.35 1025.18 1025.04 1024.85 1024.65 1024.31 1023.70 1022.80 1022.23 1021.64 1020.79 1020.22 1019.94 1019.63 1019.33 1019.08 1018.92 1018.80 1018.61 1018.39 1018.04 1018.01 1017.72 1017.43 1017.29 1017.40 1017.51 1017.76 1018.02 1018.16 1018.48 1018.48
1029.94 1029.81 1029.58 1029.29 1029.01 1028.70 1028.24 1027.79 1027.40 1026.92 1026.41 1026.23 1025.98 1025.83 1025.33 1025.11 1024.91 1024.72 1023.97 1023.12 1022.30 1021.62 1021.05 1020.67 1020.23 1019.74 1019.25 1018.96 1018.68 1018.26 1018.16 1017.99 1017.74 1017.51 1017.54 1017.33 1017.15 1017.04 1017.08 1017.25 1017.69 1017.97 1018.09
1030.43 1030.38 1030.24 1029.94 1029.81 1029.56 1029.17 1028.63 1028.19 1027.75 1027.23 1026.83 1026.46 1026.30 1025.89 1025.61 1025.31 1025.03 1024.65 1024.29 1023.47 1022.42 1021.73 1021.18 1020.84 1020.37 1019.93 1019.21 1018.73 1018.26 1018.02 1017.92 1017.59 1017.44 1017.24 1016.91 1016.90 1016.78 1016.69 1016.67 1016.88 1017.15 1017.43
1030.99 1030.75 1030.67 1030.61 1030.42 1030.12 1029.90 1029.44 1028.87 1028.57 1027.98 1027.40 1026.90 1026.68 1026.33 1026.10 1025.67 1025.29 1024.97 1024.73 1024.38 1023.85 1023.01 1022.09 1021.50 1020.76 1020.24 1019.76 1019.28 1018.55 1018.05 1017.53 1017.19 1016.97 1016.52 1016.47 1016.39 1016.24 1016.21 1016.23 1016.29 1016.53 1016.77
1031.42 1031.39 1031.09 1030.94 1030.97 1030.63 1030.49 1030.29 1029.99 1029.40 1028.57 1028.13 1027.57 1027.16 1026.68 1026.42 1026.07 1025.56 1025.16 1024.86 1024.55 1024.21 1023.66 1022.94 1022.09 1021.47 1020.66 1020.01 1019.67 1019.12 1018.37 1017.50 1016.74 1016.14 1015.97 1015.91 1015.88 1015.80 1015.75 1015.63 1015.65 1015.81 1016.01
1031.99 1031.86 1031.64 1031.38 1031.15 1031.15 1030.90 1030.48 1030.17 1029.71 1029.16 1028.65 1028.25 1027.76 1027.16 1026.75 1026.26 1025.77 1025.33 1025.04 1024.64 1024.25 1023.77 1023.35 1022.81 1022.06 1021.22 1020.54 1019.85 1019.51 1018.52 1017.81 1017.15 1015.94 1015.59 1015.31 1015.45 1015.43 1015.42 1015.23 1015.07 1015.09 1015.16
1032.07 1032.00 1031.88 1031.68 1031.32 1031.07 1031.12 1030.92 1030.58 1030.28 1029.69 1029.18 1028.79 1028.18 1027.55 1026.99 1026.43 1025.94 1025.48 1025.09 1024.72 1024.21 1023.81 1023.20 1022.67 1022.58 1021.97 1021.03 1020.22 1019.20 1018.60 1018.31 1017.96 1017.02 1015.96 1015.50 1015.26 1015.31 1015.16 1015.02 1014.62 1014.53 1014.44
1032.18 1032.19 1032.02 1031.77 1031.47 1031.27 1031.25 1031.17 1030.83 1030.56 1030.13 1029.45 1028.84 1028.31 1027.71 1027.03 1026.46 1026.10 1025.66 1025.18 1024.65 1024.32 1023.77 1023.47 1022.88 1022.47 1022.05 1021.68 1020.83 1019.98 1019.04 1018.05 1017.68 1017.42 1016.55 1016.12 1015.44 1014.96 1014.71 1014.68 1014.52 1014.39 1014.24
1032.36 1032.40 1032.28 1032.03 1031.86 1031.69 1031.46 1031.32 1030.99 1030.56 1030.05 1029.44 1028.84 1028.24 1027.64 1027.01 1026.44 1026.08 1025.67 1025.26 1024.76 1024.33 1023.87 1023.35 1023.03 1022.43 1022.04 1021.55 1021.04 1020.33 1019.46 1018.59 1017.35 1016.86 1016.43 1016.02 1015.57 1014.94 1014.59 1014.25 1014.14 1014.05 1013.99
Wind_Speed
9 8 9 8 9 9 11 11 11 10 11 11 12 11 11 11 11 11 11 10 10 10 9 10 11 12 12 13 12 12 13 13 12 12 10 10 9 10 12 13 13 11 16
10 11 12 9 9 9 10 10 9 11 11 10 11 11 11 10 10 9 9 8 9 10 10 9 10 11 11 11 12 11 10 10 9 7 10 10 7 8 7 13 14 10 15
15 12 12 11 9 9 9 8 8 8 9 9 10 9 9 9 9 8 8 7 8 9 9 9 9 9 9 9 10 10 9 7 4 2 1 1 5 6 13 13 11 11 12
13 12 11 12 10 9 8 8 7 7 8 8 8 8 8 8 7 7 7 6 7 8 8 8 8 8 8 8 8 9 7 5 5 5 3 5 7 5 11 10 10 10 11
14 13 12 14 13 12 11 10 9 8 9 8 8 8 7 7 7 7 7 6 6 7 6 6 7 6 7 7 7 6 6 6 8 9 4 5 4 8 9 8 8 9 10
11 12 13 15 15 14 13 12 11 10 8 8 7 6 6 5 5 6 5 4 4 4 4 4 4 5 4 4 4 4 5 8 9 8 5 7 4 9 9 7 7 7 9
16 13 12 13 12 13 14 14 13 12 11 10 8 7 5 4 4 4 5 4 3 2 2 2 2 2 2 2 2 2 3 7 6 6 5 5 4 5 8 8 7 7 7
17 17 17 19 13 12 12 12 11 11 9 8 8 7 6 5 3 2 2 2 2 1 0 1 1 2 1 2 2 1 3 6 7 7 4 5 4 5 6 6 4 6 8
17 16 15 16 18 15 8 9 8 7 6 5 5 5 4 4 4 2 2 1 1 1 1 3 3 4 3 4 4 3 4 8 5 4 1 4 7 2 2 5 3 4 7
14 14 14 13 13 13 12 7 3 2 1 2 2 4 7 7 8 7 5 3 1 3 4 4 4 5 5 5 5 4 5 9 7 4 3 4 6 3 7 7 6 6 6
14 15 15 15 13 13 11 12 11 5 5 5 7 7 7 4 2 3 4 2 2 4 5 6 6 6 7 7 8 8 5 4 7 4 2 12 9 6 6 7 9 8 6
17 15 15 15 15 14 10 11 8 8 6 6 7 8 6 7 4 2 3 5 7 8 8 9 8 8 6 4 4 7 3 5 6 5 3 9 8 5 7 9 11 9 6
12 12 15 15 14 14 10 9 7 6 5 5 8 7 7 6 5 3 2 2 3 4 4 5 5 4 6 5 2 4 6 6 3 2 5 8 7 4 5 8 13 9 9
13 14 14 15 13 14 9 8 10 10 10 7 6 10 7 5 6 5 4 5 4 3 4 2 2 3 5 5 5 5 5 4 3 2 2 7 6 4 7 6 9 8 8
13 13 13 14 13 12 11 7 9 9 8 10 12 13 12 10 9 7 7 5 5 5 4 5 4 3 3 5 5 5 5 5 5 4 3 7 5 5 5 8 10 10 6
12 13 11 14 14 13 12 12 8 8 9 9 9 12 14 10 9 10 9 6 6 5 5 5 5 5 5 4 4 5 6 5 4 3 4 5 10 10 8 8 11 13 15
9 11 13 14 14 13 13 11 9 9 9 8 10 14 15 12 12 12 9 9 7 6 7 5 6 3 4 4 5 5 5 6 4 5 3 4 6 10 10 11 11 14 14
8 12 11 12 14 13 13 10 8 9 8 7 8 8 13 14 15 13 9 9 11 10 6 5 5 4 3 4 4 5 4 4 6 6 5 4 4 5 9 12 12 14 15
9 10 12 12 13 13 12 9 9 10 7 8 6 8 10 11 13 11 10 10 11 8 8 9 8 6 4 4 5 5 5 4 6 6 6 6 6 5 5 12 15 13 12
8 8 9 10 12 11 8 8 7 7 7 6 5 8 11 9 11 9 8 11 12 10 8 9 9 9 8 5 6 5 3 4 5 5 7 7 6 6 6 7 8 8 15
7 8 10 11 12 9 9 10 9 9 7 7 5 11 9 10 10 9 5 8 9 10 12 10 10 8 8 7 5 4 4 7 8 6 6 5 6 8 6 6 4 6 7
7 7 9 10 10 8 7 7 5 8 5 8 8 9 9 11 11 10 7 6 7 7 11 12 11 8 8 7 5 4 4 5 6 8 6 7 9 6 5 7 7 8 8
7 8 8 7 8 7 9 6 6 6 6 6 8 8 9 11 11 10 8 8 8 5 6 8 9 12 9 9 8 5 4 4 3 3 5 5 6 5 5 7 8 9 9
6 6 6 7 6 8 8 8 9 7 9 8 8 9 10 12 11 9 10 10 9 7 7 6 8 8 10 9 9 6 6 6 4 5 4 3 3 4 6 4 6 9 9
5 6 6 7 7 8 8 7 6 9 8 9 9 12 13 11 11 11 10 10 10 8 8 10 9 8 6 8 9 8 11 7 7 7 8 6 4 4 5 5 5 4 4
6 6 7 7 7 7 7 9 9 10 11 10 10 10 9 8 8 10 11 11 10 10 10 9 10 11 10 9 9 10 9 8 4 7 9 10 10 7 4 5 6 5 5
Wind_Direction
94 94 74 69 71 76 74 72 62 51 73 72 77 81 79 78 75 71 69 67 66 69 67 64 71 78 73 64 59 60 60 68 72 73 68 75 79 80 94 106 103 103 104
99 87 78 68 65 69 78 71 55 63 68 75 81 79 76 78 74 65 66 72 77 74 73 68 65 69 67 70 64 58 62 60 66 80 101 85 71 59 66 98 93 106 103
84 85 74 66 63 68 78 74 68 63 66 63 62 68 68 67 70 69 69 71 73 77 79 76 67 68 72 69 73 65 52 48 28 35 260 126 90 76 92 92 93 98 100
80 70 61 58 60 65 73 75 72 67 63 64 64 61 62 64 70 72 67 60 84 75 73 79 77 73 78 79 70 66 54 18 327 309 305 187 129 103 103 101 107 109 108
71 66 57 51 52 53 56 55 54 50 52 51 53 47 47 47 43 57 51 59 78 87 78 77 83 80 75 78 75 60 42 4 329 317 68 34 66 142 126 116 114 122 117
77 75 62 52 48 45 42 45 47 49 55 56 58 61 56 47 43 42 35 48 87 94 95 83 80 90 89 80 78 66 18 343 328 314 78 37 26 153 132 137 127 125 127
42 42 58 61 59 59 53 44 45 46 42 39 36 33 34 44 51 61 56 57 78 70 75 94 58 62 95 117 111 100 5 330 315 313 70 81 40 134 141 132 140 155 152
34 25 18 12 27 56 57 50 37 36 39 40 39 32 21 6 7 54 70 74 96 110 268 270 243 263 294 289 255 198 307 315 321 314 100 108 94 52 143 148 193 158 140
30 26 16 7 5 6 48 55 36 36 27 26 20 4 334 305 288 242 197 213 205 239 253 244 220 248 253 276 291 248 289 300 304 293 133 137 126 13 208 173 186 187 149
33 29 20 13 4 353 334 17 25 13 350 310 275 280 282 273 260 249 222 193 252 273 255 237 231 221 239 253 263 258 281 299 288 279 144 143 151 203 247 197 215 214 186
26 24 16 10 6 358 347 357 344 259 277 252 260 251 278 267 204 252 101 99 246 252 256 250 233 219 228 233 231 230 240 264 271 269 180 152 147 195 244 250 227 222 213
20 15 15 7 5 2 354 345 333 356 1 4 15 10 353 352 340 315 275 232 261 251 252 238 230 228 227 237 214 216 214 238 257 258 127 150 157 202 231 250 232 210 190
25 21 14 9 4 3 2 352 353 352 354 357 7 10 354 349 348 340 327 284 255 235 251 224 228 215 225 228 239 194 213 217 248 286 147 161 170 200 246 272 188 184 177
28 20 16 13 7 8 6 7 1 5 2 353 8 18 359 348 349 352 355 343 338 318 306 271 194 240 250 259 256 270 266 227 190 263 173 172 180 184 218 217 185 170 191
29 19 18 16 11 11 6 3 15 11 4 5 19 17 13 0 356 347 345 339 341 347 336 333 326 244 243 265 255 235 258 277 228 180 157 184 211 206 222 209 198 195 196
31 23 14 21 12 10 11 5 16 10 6 13 17 24 11 9 359 351 335 333 341 352 349 345 330 345 346 312 289 291 252 244 263 281 214 186 199 209 212 221 218 199 201
32 25 21 18 12 14 12 9 11 4 7 21 19 14 8 8 359 349 344 341 344 349 345 337 325 354 351 329 333 333 333 307 283 257 216 229 197 205 205 211 220 229 218
37 32 23 21 15 13 11 10 6 5 17 14 22 12 7 7 358 350 346 348 345 342 332 325 316 312 272 258 265 269 266 282 299 300 282 255 201 193 203 213 216 224 223
29 29 23 21 18 12 5 6 3 2 5 0 20 5 1 9 2 354 344 346 342 344 343 343 340 326 307 300 260 239 242 236 240 255 271 274 260 227 192 198 205 214 222
33 29 27 21 14 10 5 1 2 360 353 352 5 5 354 3 355 353 352 345 344 339 338 340 333 329 322 302 304 296 278 261 248 226 229 236 249 250 228 196 200 211 209
37 29 24 18 12 17 6 0 357 354 338 346 358 356 347 353 344 344 349 343 343 340 332 325 324 315 318 323 326 310 283 267 261 239 226 222 231 241 227 225 191 198 209
34 20 24 21 10 9 7 355 348 339 338 326 357 338 340 342 333 335 332 333 331 331 329 331 329 321 313 301 299 281 290 301 257 237 222 218 220 223 239 224 211 199 199
26 14 13 9 11 359 356 347 341 329 328 334 336 331 334 331 332 319 327 324 319 317 310 314 323 320 309 319 295 280 303 245 345 295 253 211 226 213 235 231 223 219 211
21 6 0 356 2 356 351 347 344 333 328 325 321 317 323 324 319 326 328 319 314 308 309 307 312 313 312 305 312 285 264 261 272 295 319 309 274 245 242 264 228 226 220
20 2 353 345 356 351 345 339 331 320 313 312 312 312 312 310 313 316 315 314 314 314 307 304 299 300 307 304 303 299 303 265 258 252 267 271 302 259 236 233 247 260 257
9 357 344 344 345 340 331 323 317 311 310 306 304 303 302 301 297 300 300 305 304 304 304 307 302 294 295 289 289 289 284 286 264 238 244 249 247 254 257 240 227 227 229